Overview Statistics Trail Chart Weather Telemetry Raw packets
 

This is the latest recevied weather packets stored in our database for station/object WA1NHP. If no packets are shown the sender has not sent any weather packets the latest 10 day(s).

<< 38 39 40 41 42 43 44 >>
Time Temp. Humidity Pressure Rain* Wind** Luminosity Snow
1788041644 19.44° C 69% 1023.9 hPa 0 mm - 26 W/m² -
1788041043 20° C 69% 1023.9 hPa 0 mm - 25 W/m² -
1788040444 20° C 69% 1023.9 hPa 0 mm - 28 W/m² -
1788039845 20° C 68% 1023.9 hPa 0 mm - 33 W/m² -
1788039243 20.56° C 65% 1023.9 hPa 0 mm - 30 W/m² -
1788038644 21.11° C 62% 1023.9 hPa 0 mm - 44 W/m² -
1788038044 21.11° C 64% 1023.9 hPa 0 mm - 42 W/m² -
1788037443 21.67° C 64% 1023.9 hPa 0 mm - 72 W/m² -
1788036844 21.67° C 61% 1023.9 hPa 0 mm - 69 W/m² -
1788036244 21.67° C 58% 1023.9 hPa 0 mm - 100 W/m² -
1788035644 21.67° C 61% 1023.9 hPa 0 mm - 67 W/m² -
1788035044 22.22° C 55% 1023.9 hPa 0 mm - 466 W/m² -
1788034443 22.78° C 51% 1023.9 hPa 0 mm - 599 W/m² -
1788033844 22.78° C 52% 1023.9 hPa 0 mm - 645 W/m² -
1788033244 22.78° C 50% 1023.9 hPa 0 mm - 656 W/m² -
1788032643 22.78° C 58% 1023.9 hPa 0 mm - 670 W/m² -
1788032044 22.78° C 54% 1023.9 hPa 0 mm - 696 W/m² -
1788031444 22.22° C 59% 1023.9 hPa 0 mm - 712 W/m² -
1788030844 22.78° C 55% 1023.9 hPa 0 mm - 738 W/m² -
1788030244 21.67° C 54% 1023.9 hPa 0 mm - 763 W/m² -
1788029644 22.22° C 56% 1023.9 hPa 0 mm - 788 W/m² -
1788029043 22.78° C 60% 1023.9 hPa 0 mm - 807 W/m² -
1788028443 21.67° C 56% 1023.9 hPa 0 mm - 831 W/m² -
1788027844 21.67° C 58% 1023.9 hPa 0 mm - 846 W/m² -
1788027244 21.67° C 58% 1023.9 hPa 0 mm - 863 W/m² -

* Rain latest hour (hover to see other rain measurements)
** Current wind speed in m/s (hover to see current wind gust speed)